QPF
0.04 0.03 0.04 0.04 0.05 0.07 0.07 0.07 0.07 0.06 0.03 0.02 0.02 0.02 0.02 0.02 0.02 0.02 0.04 0.04 0.03 0.02 0.02 0.01 0.01 0.02 0.02 0.02 0.03 0.03 0.03 0.03 0.02 0.03 0.03 0.04 0.06 0.06
0.05 0.06 0.05 0.04 0.05 0.05 0.06 0.06 0.06 0.05 0.04 0.03 0.02 0.02 0.01 0.01 0.01 0.02 0.03 0.03 0.02 0.01 0.01 0.01 0.01 0.01 0.01 0.02 0.03 0.03 0.03 0.03 0.03 0.02 0.02 0.03 0.04 0.05
0.04 0.05 0.06 0.07 0.08 0.08 0.08 0.08 0.08 0.07 0.06 0.04 0.03 0.03 0.03 0.02 0.02 0.02 0.02 0.02 0.02 0.02 0.02 0.01 0.01 0.01 0.01 0.01 0.02 0.03 0.03 0.03 0.03 0.03 0.02 0.02 0.03 0.03
0.03 0.02 0.03 0.03 0.05 0.06 0.08 0.10 0.10 0.11 0.10 0.07 0.06 0.05 0.04 0.04 0.03 0.02 0.01 0.01 0.02 0.03 0.03 0.03 0.02 0.01 0.01 0.01 0.01 0.03 0.04 0.03 0.03 0.02 0.02 0.02 0.03 0.04
0.03 0.03 0.03 0.03 0.04 0.03 0.03 0.05 0.07 0.08 0.09 0.08 0.07 0.08 0.07 0.06 0.04 0.03 0.02 0.03 0.02 0.03 0.03 0.03 0.02 0.01 0.01 0.01 0.01 0.01 0.02 0.04 0.03 0.02 0.02 0.02 0.02 0.02
0.05 0.04 0.03 0.02 0.02 0.02 0.03 0.03 0.03 0.05 0.06 0.06 0.06 0.07 0.06 0.04 0.04 0.03 0.03 0.04 0.04 0.03 0.04 0.03 0.02 0.01 0.01 0.01 0.01 0.01 0.01 0.02 0.03 0.04 0.03 0.02 0.02 0.02
0.09 0.07 0.05 0.04 0.03 0.02 0.02 0.03 0.04 0.05 0.06 0.06 0.06 0.06 0.05 0.03 0.03 0.03 0.02 0.03 0.04 0.04 0.05 0.04 0.03 0.02 0.02 0.01 0.01 0.01 0.00 0.00 0.01 0.03 0.04 0.03 0.03 0.02
0.08 0.07 0.05 0.04 0.04 0.03 0.02 0.02 0.03 0.04 0.04 0.04 0.04 0.04 0.04 0.03 0.03 0.03 0.04 0.04 0.05 0.05 0.04 0.04 0.04 0.04 0.04 0.03 0.01 0.00 0.00 0.00 0.00 0.01 0.02 0.03 0.03 0.03
0.04 0.04 0.03 0.02 0.02 0.02 0.02 0.01 0.01 0.01 0.02 0.03 0.03 0.03 0.02 0.02 0.03 0.03 0.04 0.04 0.04 0.04 0.04 0.04 0.04 0.04 0.03 0.01 0.01 0.00 0.00 0.00 0.00 0.01 0.02 0.03 0.03 0.03
0.03 0.02 0.02 0.02 0.01 0.01 0.02 0.01 0.01 0.01 0.01 0.01 0.02 0.02 0.02 0.02 0.02 0.02 0.03 0.03 0.03 0.03 0.04 0.03 0.03 0.03 0.02 0.02 0.01 0.00 0.01 0.01 0.01 0.01 0.02 0.03 0.03 0.04
0.02 0.02 0.02 0.02 0.02 0.02 0.01 0.01 0.01 0.01 0.01 0.01 0.01 0.02 0.01 0.02 0.02 0.02 0.02 0.02 0.02 0.02 0.03 0.02 0.01 0.02 0.02 0.03 0.02 0.01 0.01 0.01 0.01 0.01 0.01 0.03 0.03 0.04
0.03 0.03 0.03 0.03 0.04 0.04 0.03 0.02 0.02 0.02 0.02 0.02 0.03 0.03 0.02 0.02 0.01 0.02 0.02 0.02 0.02 0.02 0.02 0.02 0.02 0.03 0.03 0.03 0.03 0.03 0.02 0.02 0.01 0.01 0.02 0.02 0.04 0.05
0.03 0.03 0.02 0.02 0.02 0.02 0.02 0.02 0.02 0.02 0.02 0.03 0.04 0.04 0.04 0.03 0.02 0.02 0.02 0.02 0.03 0.02 0.02 0.03 0.03 0.04 0.04 0.04 0.04 0.03 0.03 0.02 0.02 0.03 0.04 0.04 0.04 0.04
0.01 0.03 0.02 0.01 0.02 0.01 0.01 0.01 0.01 0.01 0.02 0.03 0.03 0.03 0.03 0.02 0.02 0.02 0.03 0.03 0.03 0.02 0.02 0.04 0.05 0.07 0.07 0.06 0.05 0.04 0.03 0.03 0.02 0.03 0.05 0.05 0.04 0.04
0.01 0.02 0.04 0.02 0.02 0.02 0.02 0.02 0.02 0.02 0.03 0.03 0.02 0.02 0.02 0.02 0.03 0.03 0.03 0.04 0.04 0.03 0.03 0.03 0.05 0.06 0.07 0.07 0.06 0.05 0.04 0.04 0.03 0.04 0.05 0.05 0.04 0.04
0.02 0.02 0.03 0.04 0.03 0.03 0.03 0.03 0.03 0.03 0.03 0.03 0.02 0.02 0.02 0.02 0.03 0.03 0.03 0.03 0.03 0.03 0.03 0.03 0.04 0.05 0.06 0.07 0.07 0.07 0.06 0.05 0.04 0.04 0.06 0.07 0.05 0.04
0.02 0.02 0.03 0.05 0.04 0.03 0.03 0.03 0.03 0.03 0.03 0.02 0.02 0.01 0.01 0.02 0.02 0.03 0.03 0.03 0.03 0.03 0.03 0.03 0.04 0.04 0.04 0.06 0.07 0.06 0.07 0.06 0.05 0.05 0.06 0.07 0.06 0.05
0.03 0.02 0.02 0.03 0.04 0.04 0.04 0.04 0.04 0.03 0.03 0.02 0.02 0.01 0.02 0.02 0.03 0.04 0.04 0.04 0.04 0.04 0.03 0.04 0.05 0.05 0.04 0.04 0.04 0.05 0.06 0.07 0.07 0.06 0.06 0.06 0.05 0.04
0.03 0.03 0.02 0.02 0.03 0.04 0.04 0.04 0.04 0.04 0.04 0.03 0.03 0.02 0.02 0.02 0.03 0.03 0.04 0.04 0.04 0.04 0.04 0.04 0.05 0.05 0.04 0.03 0.02 0.02 0.04 0.06 0.07 0.06 0.05 0.05 0.05 0.04
0.03 0.02 0.02 0.02 0.02 0.02 0.03 0.03 0.04 0.03 0.02 0.02 0.02 0.02 0.02 0.02 0.02 0.03 0.03 0.03 0.04 0.04 0.05 0.05 0.05 0.05 0.05 0.04 0.03 0.02 0.02 0.03 0.05 0.06 0.06 0.05 0.04 0.04
0.02 0.02 0.02 0.02 0.02 0.02 0.02 0.02 0.02 0.02 0.02 0.02 0.01 0.01 0.02 0.02 0.03 0.03 0.04 0.04 0.04 0.05 0.05 0.04 0.04 0.04 0.05 0.05 0.04 0.03 0.03 0.03 0.04 0.06 0.06 0.05 0.04 0.04
0.02 0.02 0.02 0.02 0.02 0.02 0.02 0.01 0.01 0.02 0.03 0.03 0.03 0.02 0.03 0.03 0.03 0.03 0.05 0.05 0.05 0.05 0.04 0.04 0.04 0.05 0.05 0.05 0.04 0.04 0.04 0.04 0.03 0.03 0.04 0.04 0.04 0.03
0.02 0.02 0.02 0.02 0.02 0.02 0.02 0.01 0.01 0.02 0.02 0.03 0.04 0.04 0.04 0.05 0.05 0.04 0.05 0.06 0.05 0.05 0.05 0.05 0.06 0.05 0.05 0.05 0.04 0.04 0.05 0.05 0.03 0.02 0.02 0.02 0.02 0.02
MSLP
1017.24 1017.12 1017.02 1016.91 1016.78 1016.61 1016.37 1016.07 1015.69 1015.24 1014.75 1014.24 1013.75 1013.30 1012.92 1012.64 1012.47 1012.40 1012.44 1012.56 1012.74 1012.98 1013.23 1013.50 1013.75 1014.00 1014.24 1014.46 1014.67 1014.88 1015.08 1015.28 1015.47 1015.67 1015.85 1016.03 1016.20 1016.36
1017.27 1017.16 1017.07 1016.97 1016.86 1016.70 1016.48 1016.19 1015.82 1015.38 1014.89 1014.37 1013.86 1013.39 1012.98 1012.66 1012.44 1012.32 1012.31 1012.38 1012.53 1012.74 1012.97 1013.22 1013.47 1013.72 1013.95 1014.17 1014.38 1014.57 1014.75 1014.93 1015.10 1015.26 1015.42 1015.58 1015.73 1015.88
1017.31 1017.22 1017.14 1017.06 1016.96 1016.81 1016.60 1016.32 1015.97 1015.54 1015.06 1014.54 1014.02 1013.53 1013.09 1012.72 1012.45 1012.27 1012.19 1012.20 1012.29 1012.44 1012.64 1012.86 1013.10 1013.34 1013.57 1013.79 1014.00 1014.19 1014.36 1014.52 1014.67 1014.81 1014.96 1015.10 1015.24 1015.38
1017.38 1017.32 1017.26 1017.19 1017.10 1016.96 1016.76 1016.49 1016.15 1015.74 1015.27 1014.76 1014.24 1013.73 1013.26 1012.85 1012.52 1012.28 1012.12 1012.05 1012.06 1012.13 1012.27 1012.44 1012.64 1012.86 1013.08 1013.30 1013.51 1013.70 1013.87 1014.03 1014.18 1014.32 1014.46 1014.60 1014.74 1014.88
1017.54 1017.50 1017.45 1017.39 1017.29 1017.16 1016.96 1016.70 1016.37 1015.98 1015.52 1015.03 1014.52 1014.01 1013.52 1013.07 1012.68 1012.36 1012.12 1011.95 1011.87 1011.85 1011.90 1012.01 1012.15 1012.32 1012.52 1012.72 1012.91 1013.11 1013.29 1013.46 1013.62 1013.78 1013.93 1014.09 1014.25 1014.41
1017.78 1017.76 1017.72 1017.65 1017.55 1017.41 1017.21 1016.95 1016.63 1016.25 1015.82 1015.35 1014.85 1014.35 1013.85 1013.38 1012.94 1012.55 1012.23 1011.97 1011.78 1011.66 1011.60 1011.61 1011.67 1011.78 1011.92 1012.08 1012.26 1012.44 1012.62 1012.81 1013.00 1013.19 1013.38 1013.57 1013.77 1013.96
1018.11 1018.11 1018.07 1017.99 1017.87 1017.71 1017.49 1017.23 1016.91 1016.54 1016.14 1015.69 1015.22 1014.74 1014.25 1013.77 1013.30 1012.86 1012.46 1012.11 1011.82 1011.58 1011.41 1011.31 1011.27 1011.28 1011.34 1011.44 1011.58 1011.74 1011.92 1012.12 1012.33 1012.56 1012.80 1013.04 1013.29 1013.53
1018.51 1018.52 1018.48 1018.39 1018.25 1018.06 1017.82 1017.54 1017.22 1016.87 1016.48 1016.06 1015.63 1015.17 1014.70 1014.22 1013.75 1013.27 1012.82 1012.39 1012.00 1011.65 1011.37 1011.14 1010.98 1010.88 1010.84 1010.86 1010.93 1011.05 1011.21 1011.41 1011.64 1011.90 1012.18 1012.48 1012.77 1013.06
1018.93 1018.96 1018.93 1018.83 1018.67 1018.45 1018.20 1017.90 1017.57 1017.22 1016.85 1016.46 1016.05 1015.62 1015.18 1014.72 1014.24 1013.75 1013.26 1012.77 1012.30 1011.86 1011.46 1011.12 1010.83 1010.61 1010.46 1010.38 1010.37 1010.42 1010.54 1010.72 1010.95 1011.22 1011.53 1011.86 1012.20 1012.52
1019.34 1019.40 1019.38 1019.28 1019.11 1018.88 1018.60 1018.29 1017.95 1017.59 1017.23 1016.86 1016.47 1016.08 1015.66 1015.22 1014.76 1014.27 1013.75 1013.23 1012.70 1012.18 1011.68 1011.23 1010.82 1010.48 1010.21 1010.02 1009.91 1009.89 1009.94 1010.07 1010.27 1010.53 1010.84 1011.18 1011.53 1011.87
1019.68 1019.78 1019.79 1019.71 1019.54 1019.31 1019.03 1018.70 1018.35 1018.00 1017.63 1017.26 1016.89 1016.51 1016.12 1015.70 1015.25 1014.76 1014.24 1013.69 1013.12 1012.55 1011.98 1011.44 1010.94 1010.49 1010.11 1009.81 1009.59 1009.47 1009.44 1009.51 1009.65 1009.86 1010.13 1010.44 1010.77 1011.10
1019.95 1020.10 1020.14 1020.09 1019.95 1019.73 1019.45 1019.12 1018.77 1018.41 1018.04 1017.67 1017.30 1016.93 1016.54 1016.13 1015.68 1015.20 1014.69 1014.13 1013.54 1012.94 1012.32 1011.72 1011.14 1010.60 1010.13 1009.73 1009.42 1009.19 1009.07 1009.04 1009.10 1009.24 1009.44 1009.68 1009.95 1010.23
1020.13 1020.32 1020.41 1020.39 1020.29 1020.10 1019.84 1019.53 1019.19 1018.82 1018.45 1018.08 1017.70 1017.31 1016.92 1016.51 1016.07 1015.59 1015.08 1014.53 1013.93 1013.31 1012.67 1012.03 1011.40 1010.81 1010.26 1009.78 1009.38 1009.07 1008.85 1008.72 1008.67 1008.71 1008.81 1008.96 1009.14 1009.33
1020.23 1020.45 1020.57 1020.60 1020.53 1020.38 1020.17 1019.89 1019.57 1019.22 1018.85 1018.47 1018.08 1017.68 1017.28 1016.86 1016.41 1015.94 1015.43 1014.88 1014.29 1013.68 1013.03 1012.38 1011.73 1011.10 1010.51 1009.97 1009.49 1009.10 1008.78 1008.55 1008.40 1008.32 1008.30 1008.33 1008.40 1008.49
1020.26 1020.48 1020.63 1020.69 1020.67 1020.57 1020.40 1020.17 1019.89 1019.57 1019.22 1018.85 1018.46 1018.05 1017.63 1017.20 1016.75 1016.27 1015.77 1015.23 1014.66 1014.05 1013.42 1012.77 1012.12 1011.47 1010.86 1010.28 1009.75 1009.28 1008.89 1008.56 1008.30 1008.10 1007.96 1007.87 1007.81 1007.79
1020.22 1020.43 1020.57 1020.66 1020.68 1020.64 1020.54 1020.37 1020.15 1019.87 1019.56 1019.21 1018.83 1018.43 1018.01 1017.57 1017.12 1016.64 1016.14 1015.61 1015.06 1014.47 1013.85 1013.22 1012.57 1011.93 1011.30 1010.69 1010.13 1009.61 1009.14 1008.73 1008.37 1008.06 1007.80 1007.58 1007.41 1007.28
1020.13 1020.30 1020.43 1020.52 1020.58 1020.60 1020.56 1020.47 1020.33 1020.12 1019.87 1019.56 1019.22 1018.83 1018.43 1018.00 1017.55 1017.07 1016.58 1016.06 1015.52 1014.95 1014.35 1013.73 1013.09 1012.45 1011.81 1011.19 1010.59 1010.02 1009.50 1009.01 1008.57 1008.17 1007.80 1007.48 1007.20 1006.96
1019.98 1020.09 1020.20 1020.31 1020.40 1020.47 1020.51 1020.51 1020.45 1020.33 1020.15 1019.91 1019.61 1019.27 1018.89 1018.48 1018.04 1017.58 1017.10 1016.59 1016.06 1015.50 1014.91 1014.30 1013.67 1013.02 1012.37 1011.72 1011.09 1010.48 1009.90 1009.35 1008.84 1008.35 1007.90 1007.49 1007.13 1006.82
1019.79 1019.85 1019.94 1020.05 1020.18 1020.31 1020.43 1020.52 1020.55 1020.52 1020.43 1020.26 1020.02 1019.73 1019.39 1019.00 1018.58 1018.14 1017.67 1017.18 1016.66 1016.10 1015.52 1014.90 1014.26 1013.60 1012.92 1012.25 1011.57 1010.92 1010.28 1009.67 1009.09 1008.54 1008.03 1007.55 1007.12 1006.76
1019.55 1019.60 1019.68 1019.82 1019.99 1020.18 1020.38 1020.55 1020.67 1020.73 1020.72 1020.62 1020.45 1020.20 1019.90 1019.54 1019.15 1018.72 1018.27 1017.78 1017.26 1016.71 1016.12 1015.50 1014.84 1014.15 1013.44 1012.72 1012.00 1011.29 1010.59 1009.92 1009.28 1008.67 1008.10 1007.57 1007.10 1006.70
1019.32 1019.37 1019.49 1019.66 1019.89 1020.15 1020.42 1020.67 1020.87 1021.00 1021.05 1021.01 1020.88 1020.67 1020.39 1020.06 1019.68 1019.27 1018.83 1018.35 1017.84 1017.28 1016.69 1016.05 1015.36 1014.64 1013.89 1013.12 1012.35 1011.58 1010.82 1010.09 1009.38 1008.72 1008.09 1007.52 1007.02 1006.59
1019.12 1019.23 1019.40 1019.64 1019.93 1020.27 1020.60 1020.91 1021.16 1021.34 1021.43 1021.41 1021.30 1021.11 1020.84 1020.52 1020.15 1019.75 1019.31 1018.84 1018.33 1017.78 1017.18 1016.53 1015.83 1015.08 1014.29 1013.47 1012.64 1011.81 1010.98 1010.19 1009.42 1008.69 1008.02 1007.40 1006.86 1006.40
1018.99 1019.20 1019.46 1019.79 1020.16 1020.56 1020.95 1021.30 1021.58 1021.77 1021.86 1021.84 1021.72 1021.51 1021.23 1020.90 1020.52 1020.12 1019.68 1019.22 1018.73 1018.19 1017.60 1016.95 1016.24 1015.47 1014.66 1013.81 1012.93 1012.04 1011.16 1010.29 1009.46 1008.67 1007.93 1007.26 1006.67 1006.17
Thickness
5699 5698 5697 5698 5697 5696 5695 5692 5689 5688 5691 5693 5694 5695 5694 5693 5691 5691 5690 5688 5686 5685 5683 5682 5681 5680 5679 5677 5676 5675 5674 5674 5673 5672 5672 5671 5670 5671
5694 5693 5692 5694 5693 5692 5690 5689 5688 5685 5685 5690 5689 5691 5689 5689 5687 5686 5685 5683 5682 5681 5680 5678 5677 5675 5674 5673 5672 5671 5670 5669 5668 5668 5667 5666 5666 5666
5690 5689 5687 5686 5686 5686 5685 5684 5682 5681 5678 5682 5684 5684 5681 5680 5681 5680 5680 5680 5680 5677 5675 5673 5672 5670 5669 5667 5667 5666 5664 5663 5663 5662 5662 5662 5662 5662
5685 5684 5683 5682 5680 5680 5679 5678 5677 5675 5673 5672 5674 5675 5675 5674 5674 5673 5675 5676 5676 5672 5670 5668 5666 5665 5664 5662 5661 5660 5659 5658 5657 5657 5657 5657 5657 5656
5680 5679 5678 5676 5674 5674 5673 5672 5672 5672 5669 5668 5668 5669 5669 5668 5667 5668 5669 5668 5669 5668 5665 5663 5660 5659 5658 5656 5655 5654 5653 5653 5652 5652 5651 5651 5651 5651
5676 5674 5673 5671 5669 5668 5668 5666 5665 5664 5663 5662 5662 5662 5662 5662 5660 5661 5662 5663 5662 5664 5661 5659 5656 5654 5653 5652 5651 5649 5648 5647 5647 5646 5646 5646 5646 5646
5669 5669 5667 5665 5662 5661 5662 5661 5659 5658 5658 5657 5656 5656 5656 5654 5654 5655 5655 5656 5657 5657 5656 5655 5653 5652 5649 5647 5646 5644 5643 5642 5641 5641 5641 5641 5641 5640
5663 5662 5661 5659 5656 5653 5652 5650 5649 5650 5651 5650 5651 5649 5648 5648 5647 5647 5647 5648 5648 5651 5649 5649 5649 5648 5647 5646 5644 5641 5638 5637 5636 5636 5636 5636 5635 5635
5657 5655 5656 5655 5651 5650 5647 5644 5643 5642 5641 5642 5643 5642 5642 5642 5640 5640 5639 5639 5639 5641 5640 5641 5643 5641 5642 5642 5638 5635 5633 5632 5631 5631 5631 5631 5630 5630
5651 5650 5649 5648 5646 5643 5643 5642 5640 5639 5638 5637 5636 5635 5635 5633 5631 5631 5631 5630 5631 5633 5633 5632 5635 5635 5637 5635 5633 5631 5629 5627 5627 5626 5626 5625 5625 5625
5646 5645 5643 5642 5636 5634 5635 5636 5635 5634 5632 5630 5628 5627 5625 5623 5621 5622 5623 5623 5625 5627 5628 5625 5627 5628 5629 5630 5628 5626 5625 5624 5623 5622 5621 5620 5620 5619
5640 5639 5634 5633 5629 5626 5629 5629 5628 5628 5628 5627 5623 5621 5620 5618 5615 5614 5616 5615 5617 5619 5621 5618 5619 5619 5621 5625 5625 5623 5621 5620 5619 5618 5616 5615 5614 5613
5636 5635 5632 5625 5622 5619 5620 5622 5622 5620 5622 5622 5621 5619 5617 5615 5613 5611 5610 5609 5609 5611 5613 5611 5611 5612 5613 5616 5618 5618 5618 5618 5616 5614 5612 5610 5608 5607
5629 5629 5626 5619 5615 5613 5614 5615 5612 5611 5615 5617 5616 5615 5613 5611 5609 5607 5605 5603 5603 5603 5604 5603 5603 5603 5606 5607 5609 5611 5612 5612 5612 5611 5610 5606 5603 5602
5623 5619 5616 5612 5610 5610 5609 5607 5606 5608 5610 5611 5610 5610 5608 5606 5604 5601 5599 5598 5597 5596 5597 5596 5596 5597 5598 5600 5602 5603 5604 5606 5606 5605 5605 5603 5601 5599
5614 5612 5608 5607 5606 5606 5606 5605 5605 5606 5605 5604 5604 5604 5602 5600 5597 5596 5594 5592 5592 5592 5591 5590 5589 5590 5591 5593 5595 5597 5598 5599 5599 5599 5598 5598 5597 5595
5605 5606 5608 5608 5607 5607 5606 5606 5604 5602 5599 5598 5597 5596 5594 5593 5592 5590 5588 5587 5586 5586 5586 5585 5585 5584 5584 5585 5588 5590 5592 5592 5592 5592 5590 5590 5591 5590
5597 5603 5604 5604 5604 5603 5602 5601 5599 5597 5595 5593 5591 5589 5587 5586 5584 5583 5581 5580 5580 5580 5580 5580 5579 5578 5578 5580 5580 5584 5585 5586 5587 5586 5585 5585 5585 5584
5593 5598 5598 5598 5597 5597 5596 5594 5593 5592 5589 5586 5584 5582 5581 5580 5578 5577 5576 5575 5575 5575 5575 5574 5573 5572 5573 5576 5579 5576 5579 5580 5580 5580 5580 5580 5580 5580
5593 5593 5592 5592 5591 5589 5588 5587 5586 5584 5582 5580 5578 5577 5576 5574 5573 5572 5571 5570 5569 5569 5569 5569 5569 5568 5569 5571 5573 5574 5570 5574 5574 5574 5575 5575 5575 5573
5587 5586 5586 5586 5585 5583 5582 5580 5578 5576 5574 5573 5572 5570 5570 5568 5567 5567 5567 5564 5562 5564 5565 5565 5564 5561 5563 5563 5565 5568 5568 5565 5567 5567 5568 5569 5569 5570
5580 5579 5579 5578 5577 5576 5574 5573 5571 5569 5567 5566 5565 5564 5563 5563 5562 5561 5560 5559 5559 5560 5560 5560 5559 5557 5558 5559 5560 5562 5562 5561 5559 5558 5559 5560 5563 5565
5572 5571 5571 5570 5569 5568 5567 5565 5563 5561 5559 5558 5557 5556 5555 5555 5555 5555 5555 5554 5554 5554 5554 5554 5554 5553 5553 5554 5554 5556 5557 5557 5558 5557 5556 5555 5554 5554